C1219 Weather Reports


Display with metric or nautical units.
time (UTC)temp
F
wind
direction
speed
MPH
gust
MPH
rain 1hr
in
rain 24hr
in
rain mn
in
humidity
%
barometer
mb
20260509102548 36 0 0.0 2.0 0.00 0.00 0.00 75 1012.3
20260509102048 36 0 0.0 2.0 0.00 0.00 0.00 75 1012.3
20260509101552 35 0 0.0 2.0 0.00 0.00 0.00 75 1012.3
20260509101048 35 0 0.0 2.0 0.00 0.00 0.00 76 1012.2
20260509100547 35 0 0.0 2.0 0.00 0.00 0.00 76 1012.3
20260509100055 34 0 0.0 2.0 0.00 0.00 0.00 77 1012.2
20260509095548 35 249 0.0 2.0 0.00 0.00 0.00 76 1012.1
20260509095047 34 0 0.0 0.0 0.00 0.00 0.00 76 1012.0
20260509094551 34 0 0.0 1.0 0.00 0.00 0.00 76 1012.0
20260509094048 34 0 0.0 1.0 0.00 0.00 0.00 76 1011.9
20260509093552 34 0 0.0 2.0 0.00 0.00 0.00 75 1011.8
20260509093103 34 0 0.0 3.0 0.00 0.00 0.00 76 1011.7
20260509092547 34 196 1.0 3.0 0.00 0.00 0.00 76 1011.7
20260509092047 34 192 0.0 2.0 0.00 0.00 0.00 77 1011.6
20260509091555 33 198 0.0 2.0 0.00 0.00 0.00 78 1011.6
20260509091048 32 0 0.0 0.0 0.00 0.00 0.00 79 1011.6
20260509090548 32 0 0.0 0.0 0.00 0.00 0.00 78 1011.7
20260509090056 33 0 0.0 0.0 0.00 0.00 0.00 78 1011.6
20260509085548 33 0 0.0 0.0 0.00 0.00 0.00 77 1011.7
20260509085048 33 0 0.0 0.0 0.00 0.00 0.00 76 1011.7
20260509084607 34 0 0.0 0.0 0.00 0.00 0.00 73 1011.7
20260509084048 35 0 0.0 0.0 0.00 0.00 0.00 70 1011.7
20260509083551 35 0 0.0 0.0 0.00 0.00 0.00 70 1011.7
20260509083107 35 0 0.0 0.0 0.00 0.00 0.00 71 1011.8
20260509082547 34 0 0.0 0.0 0.00 0.00 0.00 72 1011.7
20260509082048 34 0 0.0 0.0 0.00 0.00 0.00 73 1011.6
20260509081557 33 0 0.0 0.0 0.00 0.00 0.00 73 1011.7
20260509081047 34 0 0.0 0.0 0.00 0.00 0.00 73 1011.6
20260509080549 34 0 0.0 0.0 0.00 0.00 0.00 72 1011.6
20260509075548 33 0 0.0 0.0 0.00 0.00 0.00 75 1011.7
20260509075048 33 0 0.0 0.0 0.00 0.00 0.00 74 1011.7
20260509074603 34 0 0.0 0.0 0.00 0.00 0.00 73 1011.7
20260509074049 34 0 0.0 0.0 0.00 0.00 0.00 72 1011.7
20260509073549 34 0 0.0 0.0 0.00 0.00 0.00 70 1011.8
20260509073056 33 0 0.0 0.0 0.00 0.00 0.00 71 1011.8
20260509072551 33 0 0.0 0.0 0.00 0.00 0.00 75 1011.8
20260509072048 33 0 0.0 0.0 0.00 0.00 0.00 75 1011.8
20260509071553 33 0 0.0 0.0 0.00 0.00 0.00 74 1011.7
20260509071047 33 0 0.0 0.0 0.00 0.00 0.00 75 1011.7
20260509070552 33 0 0.0 0.0 0.00 0.00 0.00 72 1011.7
20260509070054 34 0 0.0 0.0 0.00 0.00 0.00 70 1011.7
20260509065548 34 0 0.0 0.0 0.00 0.00 0.00 70 1011.7
20260509065047 34 0 0.0 0.0 0.00 0.00 0.00 71 1011.8
20260509064602 34 0 0.0 0.0 0.00 0.00 0.00 75 1011.8
20260509064050 34 0 0.0 0.0 0.00 0.00 0.00 74 1011.8
20260509063547 34 0 0.0 0.0 0.00 0.00 0.00 74 1011.9
20260509063110 34 0 0.0 0.0 0.00 0.00 0.00 75 1011.8
20260509062548 34 0 0.0 0.0 0.00 0.00 0.00 76 1011.8
20260509062047 33 0 0.0 0.0 0.00 0.00 0.00 75 1011.8
20260509061612 34 0 0.0 0.0 0.00 0.00 0.00 73 1011.8
20260509061049 34 0 0.0 0.0 0.00 0.00 0.00 73 1011.8
20260509060548 34 0 0.0 0.0 0.00 0.00 0.00 73 1011.8
20260509060059 34 0 0.0 0.0 0.00 0.00 0.00 72 1011.8
20260509055548 34 0 0.0 0.0 0.00 0.00 0.00 70 1011.8
20260509055047 34 0 0.0 0.0 0.00 0.00 0.00 70 1011.7
20260509054554 35 0 0.0 0.0 0.00 0.00 0.00 70 1011.9
20260509054048 35 0 0.0 0.0 0.00 0.00 0.00 69 1011.9
20260509053549 35 0 0.0 0.0 0.00 0.00 0.00 68 1011.9
20260509053052 35 0 0.0 0.0 0.00 0.00 0.00 68 1011.8
20260509052548 35 0 0.0 0.0 0.00 0.00 0.00 69 1011.7
20260509052047 35 0 0.0 0.0 0.00 0.00 0.00 70 1011.7
20260509051553 34 0 0.0 0.0 0.00 0.00 0.00 71 1011.7
20260509051047 34 0 0.0 0.0 0.00 0.00 0.00 72 1011.6
20260509050548 35 0 0.0 0.0 0.00 0.00 0.00 70 1011.6
20260509050054 36 0 0.0 0.0 0.00 0.00 0.00 67 1011.6
20260509045549 35 0 0.0 0.0 0.00 0.00 0.00 67 1011.6
20260509045048 35 0 0.0 0.0 0.00 0.00 0.00 69 1011.6
20260509044553 35 0 0.0 0.0 0.00 0.00 0.00 71 1011.7
20260509044052 36 0 0.0 0.0 0.00 0.00 0.00 68 1011.6
20260509043548 36 0 0.0 0.0 0.00 0.00 0.00 66 1011.7
20260509043053 37 0 0.0 0.0 0.00 0.00 0.00 65 1011.6
20260509042548 37 0 0.0 0.0 0.00 0.00 0.00 63 1011.6
20260509042048 38 0 0.0 0.0 0.00 0.00 0.00 61 1011.6
20260509041549 38 0 0.0 0.0 0.00 0.00 0.00 60 1011.6
20260509041047 39 0 0.0 0.0 0.00 0.00 0.00 59 1011.7
20260509040549 39 0 0.0 2.0 0.00 0.00 0.00 59 1011.6
20260509040052 38 0 0.0 2.0 0.00 0.00 0.00 61 1011.5
20260509035547 36 0 0.0 1.0 0.00 0.00 0.00 63 1011.5
20260509035048 36 0 0.0 0.0 0.00 0.00 0.00 64 1011.5
20260509034549 37 0 0.0 2.0 0.00 0.00 0.00 63 1011.6
20260509034047 38 0 0.0 2.0 0.00 0.00 0.00 61 1011.5
20260509033548 39 0 0.0 2.0 0.00 0.00 0.00 55 1011.4
20260509033055 40 211 0.0 0.0 0.00 0.00 0.00 54 1011.5
20260509032548 40 0 0.0 0.0 0.00 0.00 0.00 53 1011.4
20260509032048 40 0 0.0 0.0 0.00 0.00 0.00 54 1011.4
20260509031559 39 0 0.0 0.0 0.00 0.00 0.00 55 1011.3
20260509031050 39 0 0.0 0.0 0.00 0.00 0.00 57 1011.2
20260509030549 39 0 0.0 0.0 0.00 0.00 0.00 58 1011.2
20260509030056 40 0 0.0 0.0 0.00 0.00 0.00 55 1011.2
20260509025549 40 0 0.0 0.0 0.00 0.00 0.00 54 1011.2
20260509025047 40 0 0.0 0.0 0.00 0.00 0.00 52 1011.2
20260509024551 40 0 0.0 2.0 0.00 0.00 0.00 52 1011.2
20260509024049 40 0 0.0 2.0 0.00 0.00 0.00 52 1011.2
20260509023546 40 276 0.0 1.0 0.00 0.00 0.00 53 1011.1
20260509023050 40 0 0.0 0.0 0.00 0.00 0.00 53 1011.1
20260509022547 40 0 0.0 2.0 0.00 0.00 0.00 55 1011.2
20260509022047 40 0 0.0 2.0 0.00 0.00 0.00 55 1011.1
20260509021555 40 0 0.0 2.0 0.00 0.00 0.00 54 1011.2
20260509021046 41 276 0.0 2.0 0.00 0.00 0.00 52 1011.0
20260509020546 41 0 0.0 1.0 0.00 0.00 0.00 51 1011.0
20260509020058 42 0 0.0 2.0 0.00 0.00 0.00 49 1010.8
20260509015547 42 292 1.0 2.0 0.00 0.00 0.00 49 1010.8
20260509015047 42 292 1.0 3.0 0.00 0.00 0.00 49 1010.8
20260509014553 42 294 1.0 3.0 0.00 0.00 0.00 49 1010.8
20260509014049 42 279 1.0 2.0 0.00 0.00 0.00 50 1010.7
20260509013548 42 290 0.0 1.0 0.00 0.00 0.00 50 1010.7
20260509013057 42 0 0.0 2.0 0.00 0.00 0.00 49 1010.6
20260509012546 43 271 1.0 2.0 0.00 0.00 0.00 48 1010.5
20260509012047 43 271 1.0 2.0 0.00 0.00 0.00 48 1010.4
20260509011553 43 271 1.0 2.0 0.00 0.00 0.00 48 1010.4
20260509011046 43 269 0.0 2.0 0.00 0.00 0.00 48 1010.3
20260509010548 43 268 1.0 3.0 0.00 0.00 0.00 48 1010.3
20260509010055 43 268 1.0 3.0 0.00 0.00 0.00 48 1010.2
20260509005547 43 290 1.0 2.0 0.00 0.00 0.00 48 1010.1
20260509005046 43 285 1.0 2.0 0.00 0.00 0.00 48 1010.1
20260509004606 43 293 1.0 2.0 0.00 0.00 0.00 48 1010.0
20260509004047 43 287 1.0 3.0 0.00 0.00 0.00 47 1009.9
20260509003547 43 287 1.0 3.0 0.00 0.00 0.00 47 1009.9
20260509003054 43 273 0.0 2.0 0.00 0.00 0.00 47 1009.8
20260509002549 43 0 0.0 0.0 0.00 0.00 0.00 47 1009.8
20260509002054 43 0 0.0 0.0 0.00 0.00 0.00 47 1009.7
20260509001552 43 0 0.0 0.0 0.00 0.00 0.00 48 1009.8
20260509001048 43 0 0.0 0.0 0.00 0.00 0.00 47 1009.7
20260509000547 44 0 0.0 0.0 0.00 0.00 0.00 46 1009.7
20260509000054 44 0 0.0 0.0 0.00 0.00 0.00 47 1009.7
20260508235549 44 0 0.0 0.0 0.00 0.00 0.00 46 1009.6
20260508235048 44 0 0.0 0.0 0.00 0.00 0.00 48 1009.5
20260508234554 44 0 0.0 0.0 0.00 0.00 0.00 47 1009.5
20260508234048 44 0 0.0 0.0 0.00 0.00 0.00 50 1009.4
20260508233547 45 0 0.0 0.0 0.00 0.00 0.00 50 1009.4
20260508233053 45 0 0.0 2.0 0.00 0.00 0.00 46 1009.5
20260508232546 45 0 0.0 2.0 0.00 0.00 0.00 46 1009.4
20260508232047 46 0 0.0 3.0 0.00 0.00 0.00 43 1009.4
20260508231552 46 0 0.0 3.0 0.00 0.00 0.00 43 1009.4
20260508231046 46 264 1.0 3.0 0.00 0.00 0.00 42 1009.4
20260508230547 46 0 0.0 2.0 0.00 0.00 0.00 42 1009.3
20260508230056 46 0 0.0 6.0 0.00 0.00 0.00 43 1009.3
20260508225547 46 267 2.0 6.0 0.00 0.00 0.00 40 1009.3
20260508225047 46 283 0.0 5.0 0.00 0.00 0.00 43 1009.4
20260508224553 47 264 1.0 6.0 0.00 0.00 0.00 41 1009.4
20260508224049 47 256 2.0 8.0 0.00 0.00 0.00 40 1009.4
20260508223549 47 281 3.0 8.0 0.00 0.00 0.00 40 1009.3
20260508223054 47 258 3.0 8.0 0.00 0.00 0.00 40 1009.3
20260508222547 47 236 1.0 8.0 0.00 0.00 0.00 42 1009.2
20260508222047 47 212 1.0 9.0 0.00 0.00 0.00 40 1009.2
20260508221559 47 327 2.0 9.0 0.00 0.00 0.00 41 1009.2
20260508221048 47 248 3.0 9.0 0.00 0.00 0.00 40 1009.2
20260508220547 47 50 2.0 8.0 0.00 0.00 0.00 41 1009.2
20260508220055 47 0 1.0 11.0 0.00 0.00 0.00 43 1009.1
20260508215546 47 321 5.0 11.0 0.00 0.00 0.00 39 1009.1
20260508215049 47 333 2.0 6.0 0.00 0.00 0.00 42 1009.1
20260508214554 47 13 2.0 6.0 0.00 0.00 0.00 41 1009.1
20260508214047 47 42 1.0 4.0 0.00 0.00 0.00 41 1009.1
20260508213549 47 242 2.0 12.0 0.00 0.00 0.00 41 1009.1
20260508213052 47 227 2.0 12.0 0.00 0.00 0.00 42 1009.1
20260508212548 48 267 4.0 12.0 0.00 0.00 0.00 40 1009.0
20260508212048 48 271 3.0 10.0 0.00 0.00 0.00 41 1009.0
20260508211559 48 288 4.0 10.0 0.00 0.00 0.00 41 1009.0
20260508211049 48 28 2.0 10.0 0.00 0.00 0.00 40 1008.9
20260508210547 48 15 1.0 10.0 0.00 0.00 0.00 41 1008.9
20260508210055 48 327 3.0 9.0 0.00 0.00 0.00 42 1008.9
20260508205547 48 209 3.0 11.0 0.00 0.00 0.00 43 1008.9
20260508205048 48 298 5.0 11.0 0.00 0.00 0.00 41 1008.8
20260508204557 48 239 1.0 13.0 0.00 0.00 0.00 40 1008.9
20260508204049 48 352 5.0 13.0 0.00 0.00 0.00 39 1008.8
20260508203548 49 253 3.0 11.0 0.00 0.00 0.00 41 1008.8
20260508203101 48 307 4.0 11.0 0.00 0.00 0.00 42 1008.8
20260508202548 47 12 4.0 13.0 0.00 0.00 0.00 43 1008.7
20260508202049 47 323 6.0 13.0 0.00 0.00 0.00 42 1008.7
20260508201603 47 263 2.0 8.0 0.00 0.00 0.00 43 1008.7
20260508201048 47 251 3.0 11.0 0.00 0.00 0.00 43 1008.7
20260508200548 47 199 4.0 11.0 0.00 0.00 0.00 44 1008.7
20260508200053 47 213 4.0 11.0 0.00 0.00 0.00 44 1008.8
20260508195547 47 284 3.0 7.0 0.00 0.00 0.00 45 1008.8
20260508195052 46 0 0.0 7.0 0.00 0.00 0.00 45 1008.8
20260508194553 46 211 3.0 11.0 0.00 0.00 0.00 43 1008.8
20260508194048 47 244 4.0 11.0 0.00 0.00 0.00 43 1008.8
20260508193548 47 226 3.0 10.0 0.00 0.00 0.00 42 1008.8
20260508193055 47 244 4.0 16.0 0.00 0.00 0.00 42 1008.8
20260508192550 47 257 4.0 18.0 0.00 0.00 0.00 42 1008.9
20260508192049 47 304 3.0 18.0 0.00 0.00 0.00 42 1008.8
20260508191550 47 285 4.0 16.0 0.00 0.00 0.00 43 1008.8
20260508191048 47 246 3.0 11.0 0.00 0.00 0.00 44 1008.8
20260508190548 47 305 3.0 13.0 0.00 0.00 0.00 43 1008.8
20260508190054 47 256 7.0 13.0 0.00 0.00 0.00 43 1008.8
20260508185553 47 244 3.0 10.0 0.00 0.00 0.00 44 1008.7
20260508185048 46 247 2.0 12.0 0.00 0.00 0.00 44 1008.9
20260508184553 46 298 3.0 18.0 0.00 0.00 0.00 44 1008.9
20260508184050 46 279 8.0 18.0 0.00 0.00 0.00 43 1008.9
20260508183547 46 240 4.0 13.0 0.00 0.00 0.00 44 1008.9
20260508183056 46 273 4.0 13.0 0.00 0.00 0.00 43 1008.9
20260508182549 46 282 5.0 12.0 0.00 0.00 0.00 45 1008.9
20260508182047 45 285 5.0 12.0 0.00 0.00 0.00 45 1009.0
20260508181644 45 252 4.0 12.0 0.00 0.00 0.00 46 1009.0
20260508181048 45 248 4.0 12.0 0.00 0.00 0.00 44 1008.9
20260508180547 45 78 3.0 13.0 0.00 0.00 0.00 47 1009.0
20260508180056 45 284 4.0 13.0 0.00 0.00 0.00 47 1009.1
20260508175548 45 246 4.0 12.0 0.00 0.00 0.00 46 1008.9
20260508175049 45 254 4.0 12.0 0.00 0.00 0.00 47 1008.9
20260508174606 45 223 2.0 9.0 0.00 0.00 0.00 47 1009.0
20260508174052 45 212 4.0 9.0 0.00 0.00 0.00 47 1008.9
20260508173548 45 229 2.0 9.0 0.00 0.00 0.00 48 1008.9
20260508173054 45 196 2.0 8.0 0.00 0.00 0.00 49 1009.0
20260508172549 44 318 2.0 8.0 0.00 0.00 0.00 48 1008.9
20260508172049 44 315 1.0 7.0 0.00 0.00 0.00 48 1008.9
20260508171554 44 331 2.0 12.0 0.00 0.00 0.00 48 1008.9
20260508171048 44 252 4.0 12.0 0.00 0.00 0.00 47 1008.9
20260508170548 44 310 3.0 10.0 0.00 0.00 0.00 47 1008.9
20260508170055 44 304 3.0 10.0 0.00 0.00 0.00 48 1009.0
20260508165547 44 251 2.0 9.0 0.00 0.00 0.00 48 1008.8
20260508165048 44 352 4.0 13.0 0.00 0.00 0.00 48 1008.9
20260508164553 44 259 4.0 13.0 0.00 0.00 0.00 47 1008.9
20260508164048 44 271 3.0 10.0 0.00 0.00 0.00 47 1008.8
20260508163547 44 320 3.0 10.0 0.00 0.00 0.00 49 1008.8
20260508163054 44 282 1.0 7.0 0.00 0.00 0.00 48 1008.9
20260508162549 44 275 2.0 7.0 0.00 0.00 0.00 47 1008.9
20260508162049 44 5 1.0 9.0 0.00 0.00 0.00 49 1008.9
20260508161549 44 210 4.0 9.0 0.00 0.00 0.00 48 1008.9
20260508161048 44 260 2.0 10.0 0.00 0.00 0.00 48 1008.8
20260508160551 44 360 1.0 10.0 0.00 0.00 0.00 46 1008.9
20260508160051 45 296 3.0 10.0 0.00 0.00 0.00 44 1008.8
20260508155547 46 0 3.0 10.0 0.00 0.00 0.00 43 1008.7
20260508155048 47 290 3.0 11.0 0.00 0.00 0.00 41 1008.7
20260508154649 45 285 3.0 11.0 0.00 0.00 0.00 46 1008.7
20260508154047 45 273 5.0 11.0 0.00 0.00 0.00 45 1008.7
20260508153547 45 259 2.0 14.0 0.00 0.00 0.00 48 1008.8
20260508153056 44 231 3.0 14.0 0.00 0.00 0.00 47 1008.7
20260508152547 44 262 4.0 22.0 0.00 0.00 0.00 47 1008.8
20260508152047 44 261 9.0 22.0 0.00 0.00 0.00 47 1008.8
20260508151557 44 277 6.0 15.0 0.00 0.00 0.00 49 1008.8
20260508151047 44 240 3.0 16.0 0.00 0.00 0.00 52 1008.8
20260508150546 45 198 4.0 16.0 0.00 0.00 0.00 54 1008.7
20260508150055 44 304 7.0 16.0 0.00 0.00 0.00 53 1008.8
20260508145549 45 310 4.0 16.0 0.00 0.00 0.00 54 1008.8
20260508145049 44 319 3.0 16.0 0.00 0.00 0.00 54 1008.8
20260508144552 44 333 3.0 13.0 0.00 0.00 0.00 54 1008.8
20260508144047 43 315 2.0 10.0 0.00 0.00 0.00 56 1008.9
20260508143548 43 265 4.0 12.0 0.00 0.00 0.00 59 1008.9
20260508143104 42 277 2.0 16.0 0.00 0.00 0.00 59 1008.9
20260508142550 42 304 6.0 16.0 0.00 0.00 0.00 59 1008.9
20260508142047 42 238 6.0 14.0 0.00 0.00 0.00 59 1008.9
20260508141614 42 299 3.0 10.0 0.00 0.00 0.00 59 1008.8
20260508141048 42 227 3.0 16.0 0.00 0.00 0.00 60 1008.9
20260508140547 42 292 3.0 16.0 0.00 0.00 0.00 62 1008.8
20260508140055 41 267 7.0 16.0 0.00 0.00 0.00 63 1008.9
20260508135547 41 223 7.0 12.0 0.00 0.00 0.00 63 1008.8
20260508135047 41 309 5.0 12.0 0.00 0.00 0.00 64 1008.9
20260508134612 41 276 5.0 12.0 0.00 0.00 0.00 64 1008.9
20260508134046 41 243 1.0 9.0 0.00 0.00 0.00 63 1008.9
20260508133547 41 312 4.0 10.0 0.00 0.00 0.00 63 1008.8
20260508133101 41 295 3.0 10.0 0.00 0.00 0.00 61 1008.8
20260508132549 42 257 3.0 12.0 0.00 0.00 0.00 62 1008.7
20260508132048 42 256 4.0 12.0 0.00 0.00 0.00 63 1008.7
20260508131554 42 257 3.0 14.0 0.00 0.00 0.00 62 1008.5
20260508131048 42 265 6.0 14.0 0.00 0.00 0.00 62 1008.5
20260508130547 42 305 5.0 11.0 0.00 0.00 0.00 62 1008.5
20260508130057 42 240 3.0 14.0 0.00 0.00 0.00 63 1008.4
20260508125548 41 256 5.0 14.0 0.00 0.00 0.00 63 1008.4
20260508125048 42 263 3.0 14.0 0.00 0.00 0.00 62 1008.5
20260508124600 41 221 7.0 13.0 0.00 0.00 0.00 63 1008.5
20260508124141 41 194 2.0 12.0 0.00 0.00 0.00 63 1008.5
20260508123548 41 263 4.0 9.0 0.00 0.00 0.00 63 1008.5
20260508123057 41 192 2.0 7.0 0.00 0.00 0.00 64 1008.4
20260508122548 41 320 2.0 11.0 0.00 0.00 0.00 64 1008.4
20260508122048 41 0 1.0 11.0 0.00 0.00 0.00 64 1008.4
20260508121601 41 291 2.0 7.0 0.00 0.00 0.00 64 1008.4
20260508121047 41 0 2.0 8.0 0.00 0.00 0.00 64 1008.4
20260508120550 41 272 3.0 8.0 0.00 0.00 0.00 63 1008.3
20260508120052 41 257 1.0 8.0 0.00 0.00 0.00 64 1008.3
20260508115548 41 322 3.0 12.0 0.00 0.00 0.00 63 1008.2
20260508115047 41 252 3.0 12.0 0.00 0.00 0.00 63 1008.2
20260508114557 40 323 3.0 8.0 0.00 0.00 0.00 67 1008.2
20260508114047 40 0 1.0 4.0 0.00 0.00 0.00 73 1008.1
20260508113548 39 0 0.0 2.0 0.00 0.00 0.00 75 1008.1
20260508113105 38 0 0.0 2.0 0.00 0.00 0.00 74 1008.1
20260508112548 38 0 0.0 2.0 0.00 0.00 0.00 75 1008.0
20260508112048 38 0 0.0 2.0 0.00 0.00 0.00 73 1008.0
20260508111601 37 194 0.0 3.0 0.00 0.00 0.00 73 1008.0
20260508111048 37 0 0.0 3.0 0.00 0.00 0.00 73 1008.0
20260508110548 37 201 1.0 3.0 0.00 0.00 0.00 76 1007.9
20260508110100 36 0 1.0 5.0 0.00 0.00 0.00 77 1007.9
20260508105548 35 0 0.0 5.0 0.00 0.00 0.00 78 1007.9
20260508105047 35 159 0.0 2.0 0.00 0.00 0.00 78 1007.9
20260508104554 34 0 0.0 3.0 0.00 0.00 0.00 82 1007.9
20260508104048 34 0 0.0 3.0 0.00 0.00 0.00 81 1007.8
20260508103550 35 0 0.0 3.0 0.00 0.00 0.00 79 1007.9